GW1938 Weather Reports


time (UTC)temp
F
wind
direction
speed
knots
gust
knots
rain 1hr
in
rain 24hr
in
rain mn
in
humidity
%
barometer
mb
20260510123751 67 174 10.4 16.5 0.00 0.00 0.00 75 1028.0
20260510122746 67 186 10.4 14.8 0.00 0.00 0.00 75 1028.1
20260510122244 67 188 9.6 15.6 0.00 0.00 0.00 75 1028.0
20260510121742 67 187 8.7 16.5 0.00 0.00 0.00 75 1028.0
20260510120233 67 198 9.6 15.6 0.00 0.00 0.00 73 1028.1
20260510115732 67 193 10.4 17.4 0.00 0.00 0.00 72 1028.1
20260510115230 67 192 9.6 13.9 0.00 0.00 0.00 72 1028.1
20260510114226 67 198 9.6 14.8 0.00 0.00 0.00 73 1028.1
20260510113724 67 196 9.6 14.8 0.00 0.00 0.00 72 1028.0
20260510113223 67 193 8.7 13.9 0.00 0.00 0.00 72 1028.1
20260510112721 67 194 7.8 13.9 0.00 0.00 0.00 72 1028.0
20260510112220 67 194 7.8 12.2 0.00 0.00 0.00 71 1028.1
20260510110711 67 190 8.7 13.9 0.00 0.00 0.00 70 1028.1
20260510110208 67 189 8.7 14.8 0.00 0.00 0.00 71 1028.1
20260510105202 67 189 7.0 10.4 0.00 0.00 0.00 72 1028.1
20260510104659 67 187 7.8 11.3 0.00 0.00 0.00 72 1028.1
20260510104157 67 189 7.0 11.3 0.00 0.00 0.00 70 1028.1
20260510102648 68 191 8.7 13.9 0.00 0.00 0.00 68 1028.0
20260510102147 68 183 11.3 19.1 0.00 0.00 0.00 68 1027.9
20260510101645 68 185 10.4 17.4 0.00 0.00 0.00 68 1027.8
20260510101143 68 195 11.3 18.2 0.00 0.00 0.00 68 1027.7
20260510100136 68 187 10.4 17.4 0.00 0.00 0.00 69 1027.7
20260510095634 68 198 7.8 12.2 0.00 0.00 0.00 70 1027.7
20260510095132 68 184 8.7 13.9 0.00 0.00 0.00 70 1027.6
20260510094630 68 189 7.8 14.8 0.00 0.00 0.00 71 1027.5
20260510094128 68 181 8.7 13.9 0.00 0.00 0.00 73 1027.5
20260510093627 68 180 10.4 17.4 0.00 0.00 0.00 72 1027.4
20260510093124 68 185 11.3 18.2 0.00 0.00 0.00 71 1027.4
20260510092622 68 191 11.3 18.2 0.00 0.00 0.00 71 1027.4
20260510092121 68 190 9.6 14.8 0.00 0.00 0.00 71 1027.2
20260510091116 68 190 8.7 14.8 0.00 0.00 0.00 73 1027.3
20260510090615 68 189 9.6 15.6 0.00 0.00 0.00 73 1027.2
20260510090114 68 199 8.7 13.9 0.00 0.00 0.00 73 1027.1
20260510085109 68 185 8.7 14.8 0.00 0.00 0.00 74 1027.0
20260510084607 68 201 8.7 15.6 0.00 0.00 0.00 74 1026.9
20260510083602 68 200 10.4 17.4 0.00 0.00 0.00 75 1026.7
20260510083100 68 191 10.4 16.5 0.00 0.00 0.00 76 1026.7
20260510082556 68 192 9.6 16.5 0.00 0.00 0.00 76 1026.7
20260510081551 68 198 8.7 17.4 0.00 0.00 0.00 77 1026.5
20260510081048 68 193 9.6 14.8 0.00 0.00 0.00 78 1026.5
20260510080546 68 195 10.4 17.4 0.00 0.00 0.00 78 1026.4
20260510075541 68 197 12.2 18.2 0.00 0.00 0.00 78 1026.4
20260510075040 67 200 8.7 15.6 0.00 0.00 0.00 78 1026.4
20260510074538 67 203 8.7 14.8 0.00 0.00 0.00 78 1026.4
20260510074037 67 203 7.0 12.2 0.00 0.00 0.00 78 1026.3
20260510073536 67 203 7.0 13.0 0.00 0.00 0.00 78 1026.4
20260510072529 67 208 6.1 13.0 0.00 0.00 0.00 78 1026.3
20260510072028 67 207 4.3 8.7 0.00 0.00 0.00 79 1026.3
20260510071022 67 214 7.0 12.2 0.00 0.00 0.00 81 1026.3
20260510070520 67 224 5.2 10.4 0.00 0.00 0.00 82 1026.2
20260510070017 67 215 6.1 11.3 0.00 0.00 0.00 82 1026.2
20260510065516 67 219 7.0 12.2 0.00 0.00 0.00 82 1026.1
20260510065014 67 218 5.2 9.6 0.00 0.00 0.00 81 1026.2
20260510064512 67 213 8.7 16.5 0.00 0.00 0.00 81 1026.1
20260510064011 67 207 7.8 13.0 0.00 0.00 0.00 81 1026.0
20260510063510 67 205 8.7 14.8 0.00 0.00 0.00 80 1026.1
20260510063008 67 206 5.2 12.2 0.00 0.00 0.00 80 1026.1
20260510062507 67 208 8.7 12.2 0.00 0.00 0.00 79 1025.9
20260510061502 67 204 9.6 15.6 0.00 0.00 0.00 79 1025.9
20260510060458 67 209 8.7 15.6 0.00 0.00 0.00 78 1025.8
20260510055957 68 202 7.0 12.2 0.00 0.00 0.00 78 1025.8
20260510054448 68 203 8.7 15.6 0.00 0.00 0.00 77 1025.6
20260510053946 68 207 7.0 14.8 0.00 0.00 0.00 77 1025.5
20260510053445 68 198 4.3 8.7 0.00 0.00 0.00 76 1025.6
20260510052942 67 200 8.7 14.8 0.00 0.00 0.00 77 1025.6
20260510051936 67 203 6.1 13.0 0.00 0.00 0.00 75 1025.4
20260510051433 68 207 6.1 13.0 0.00 0.00 0.00 75 1025.4
20260510050932 68 199 7.8 14.8 0.00 0.00 0.00 74 1025.3
20260510050430 68 192 7.0 13.9 0.00 0.00 0.00 73 1025.3
20260510044921 68 194 8.7 15.6 0.00 0.00 0.00 73 1025.3
20260510044420 68 207 9.6 14.8 0.00 0.00 0.00 73 1025.2
20260510043918 68 210 9.6 14.8 0.00 0.00 0.00 73 1025.2
20260510043416 68 210 7.8 14.8 0.00 0.00 0.00 72 1025.3
20260510042913 69 207 7.8 14.8 0.00 0.00 0.00 70 1025.2
20260510041909 70 215 6.1 12.2 0.00 0.00 0.00 68 1025.2
20260510040828 68 195 9.6 14.8 0.00 0.00 0.00 69 1025.2
20260510040326 69 204 8.7 15.6 0.00 0.00 0.00 67 1025.2
20260510035824 69 201 8.7 15.6 0.00 0.00 0.00 67 1025.2
20260510035322 69 205 6.1 11.3 0.00 0.00 0.00 65 1025.2
20260510034317 67 213 7.8 12.2 0.00 0.00 0.00 68 1025.1
20260510032809 69 210 8.7 14.8 0.00 0.00 0.00 62 1025.1
20260510032308 69 202 5.2 11.3 0.00 0.00 0.00 62 1025.2
20260510031302 68 208 7.0 13.9 0.00 0.00 0.00 64 1025.2
20260510030801 68 204 8.7 14.8 0.00 0.00 0.00 66 1025.3
20260510030259 68 204 10.4 15.6 0.00 0.00 0.00 65 1025.3
20260510025757 68 201 9.6 13.9 0.00 0.00 0.00 65 1025.4
20260510025256 69 206 8.7 13.0 0.00 0.00 0.00 64 1025.4
20260510024754 69 211 8.7 13.9 0.00 0.00 0.00 62 1025.4
20260510024252 69 192 6.1 11.3 0.00 0.00 0.00 61 1025.5
20260510023751 70 195 6.1 12.2 0.00 0.00 0.00 61 1025.5
20260510023248 70 207 5.2 11.3 0.00 0.00 0.00 61 1025.6
20260510022746 69 200 7.8 13.0 0.00 0.00 0.00 63 1025.5
20260510022244 69 205 7.0 12.2 0.00 0.00 0.00 63 1025.6
20260510021742 69 190 6.1 11.3 0.00 0.00 0.00 63 1025.7
20260510021241 69 199 7.0 11.3 0.00 0.00 0.00 63 1025.7
20260510020740 69 201 7.8 13.0 0.00 0.00 0.00 64 1025.9
20260510020238 69 208 7.8 13.0 0.00 0.00 0.00 62 1025.9
20260510014729 68 228 7.0 12.2 0.00 0.00 0.00 62 1026.0
20260510014227 67 279 4.3 7.8 0.00 0.00 0.00 67 1026.1
20260510013725 69 285 2.6 6.1 0.00 0.00 0.00 66 1026.2
20260510013224 69 265 1.7 4.3 0.00 0.00 0.00 68 1026.2
20260510012722 69 322 3.5 7.8 0.00 0.00 0.00 68 1026.3
20260510012221 68 316 2.6 7.0 0.00 0.00 0.00 69 1026.3
20260510011719 68 311 3.5 7.0 0.00 0.00 0.00 70 1026.2
20260510011218 67 316 1.7 4.3 0.00 0.00 0.00 70 1026.4
20260510010716 66 325 1.7 7.0 0.00 0.00 0.00 73 1026.4
20260510010214 66 312 2.6 5.2 0.00 0.00 0.00 73 1026.5
20260510005209 67 322 2.6 5.2 0.00 0.00 0.00 71 1026.6
20260510004707 66 322 2.6 7.0 0.00 0.00 0.00 73 1026.7
20260510004205 65 320 1.7 4.3 0.00 0.00 0.00 73 1026.7
20260510003705 65 326 1.7 4.3 0.00 0.00 0.00 75 1026.7
20260510003203 65 343 1.7 4.3 0.00 0.00 0.00 76 1026.8
20260510002701 64 324 1.7 4.3 0.00 0.00 0.00 78 1026.7
20260510002200 63 318 2.6 5.2 0.00 0.00 0.00 78 1026.7
20260510001658 63 279 4.3 8.7 0.00 0.00 0.00 80 1026.7
20260510001156 62 266 5.2 9.6 0.00 0.00 0.00 80 1026.7
20260510000653 62 276 5.2 9.6 0.00 0.00 0.00 79 1026.6
20260510000151 62 277 4.3 8.7 0.00 0.00 0.00 80 1026.6
20260509235650 61 283 4.3 7.8 0.00 0.00 0.00 79 1026.6
20260509235149 61 286 3.5 7.0 0.00 0.00 0.00 82 1026.5
20260509234647 61 274 4.3 7.0 0.00 0.00 0.00 81 1026.5
20260509234146 61 272 4.3 8.7 0.00 0.00 0.00 80 1026.5
20260509233645 61 265 5.2 7.8 0.00 0.00 0.00 80 1026.5
20260509232640 61 263 5.2 9.6 0.00 0.00 0.00 80 1026.4
20260509232138 61 262 5.2 9.6 0.00 0.00 0.00 80 1026.4
20260509231635 61 263 5.2 10.4 0.00 0.00 0.00 80 1026.4
20260509231133 60 264 6.1 10.4 0.00 0.00 0.00 81 1026.4
20260509230631 60 261 6.1 8.7 0.00 0.00 0.00 80 1026.3
20260509230059 60 261 6.1 9.6 0.00 0.00 0.00 81 1026.3
20260509225551 60 266 6.1 10.4 0.00 0.00 0.00 82 1026.3
20260509225050 59 266 7.0 12.2 0.00 0.00 0.00 82 1026.2
20260509224547 59 267 7.0 12.2 0.00 0.00 0.00 81 1026.2
20260509224044 59 261 7.0 12.2 0.00 0.00 0.00 81 1026.1
20260509223542 59 262 7.8 13.0 0.00 0.00 0.00 83 1026.3
20260509223039 59 262 7.8 13.9 0.00 0.00 0.00 81 1026.2
20260509222538 59 262 8.7 13.9 0.00 0.00 0.00 81 1026.2
20260509222037 59 256 9.6 14.8 0.00 0.00 0.00 80 1026.2
20260509221535 59 251 9.6 13.9 0.00 0.00 0.00 81 1026.2
20260509220531 59 257 8.7 13.9 0.00 0.00 0.00 82 1026.1
20260509220029 59 254 8.7 13.9 0.00 0.00 0.00 82 1026.1
20260509215528 59 260 7.0 11.3 0.00 0.00 0.00 84 1026.0
20260509215027 59 274 6.1 11.3 0.00 0.00 0.00 84 1026.0
20260509214524 58 281 5.2 9.6 0.00 0.00 0.00 86 1026.0
20260509214023 58 287 5.2 10.4 0.00 0.00 0.00 86 1025.9
20260509213522 58 306 4.3 8.7 0.00 0.00 0.00 86 1025.9
20260509213020 58 268 7.0 13.0 0.00 0.00 0.00 88 1025.8
20260509212519 58 255 9.6 13.0 0.00 0.00 0.00 87 1025.8
20260509212018 57 255 8.7 13.0 0.00 0.00 0.00 87 1025.8
20260509211517 57 256 9.6 14.8 0.00 0.00 0.00 88 1025.7
20260509211016 57 254 8.7 13.0 0.00 0.00 0.00 89 1025.7
20260509210513 57 255 8.7 13.9 0.00 0.00 0.00 89 1025.6
20260509205507 57 248 8.7 13.0 0.00 0.00 0.00 90 1025.5
20260509204501 57 253 9.6 13.0 0.00 0.00 0.00 90 1025.4
20260509203958 57 255 9.6 13.0 0.00 0.00 0.00 90 1025.3
20260509203456 57 252 9.6 13.0 0.00 0.00 0.00 90 1025.2
20260509202954 57 249 8.7 13.0 0.00 0.00 0.00 90 1025.2
20260509202453 57 249 8.7 13.0 0.00 0.00 0.00 90 1025.1
20260509201448 57 249 8.7 12.2 0.00 0.00 0.00 90 1025.0
20260509200946 57 251 9.6 13.9 0.00 0.00 0.00 90 1024.9
20260509200445 57 250 9.6 13.9 0.00 0.00 0.00 89 1024.8
20260509195943 57 248 8.7 12.2 0.00 0.00 0.00 90 1024.7
20260509195440 57 247 8.7 12.2 0.00 0.00 0.00 90 1024.6
20260509194939 57 252 9.6 13.9 0.00 0.00 0.00 90 1024.5
20260509193934 57 252 9.6 12.2 0.00 0.00 0.00 89 1024.5
20260509193431 57 253 9.6 13.0 0.00 0.00 0.00 89 1024.5
20260509192930 57 254 8.7 13.0 0.00 0.00 0.00 89 1024.4
20260509192428 57 255 8.7 12.2 0.00 0.00 0.00 89 1024.4
20260509191927 57 256 8.7 12.2 0.00 0.00 0.00 89 1024.4
20260509191426 57 253 8.7 12.2 0.00 0.00 0.00 89 1024.4
20260509190924 57 251 7.8 12.2 0.00 0.00 0.00 89 1024.3
20260509190423 58 255 7.8 13.0 0.00 0.00 0.00 89 1024.3
20260509185922 58 254 7.8 12.2 0.00 0.00 0.00 89 1024.2
20260509184916 58 260 6.1 12.2 0.00 0.00 0.00 89 1024.1
20260509184415 58 260 7.8 12.2 0.00 0.00 0.00 88 1024.0
20260509183410 58 256 8.7 13.0 0.00 0.00 0.00 88 1024.0
20260509182909 57 261 8.7 13.9 0.00 0.00 0.00 86 1023.9
20260509182407 57 257 8.7 13.9 0.00 0.00 0.00 86 1023.9
20260509180858 57 272 7.0 13.0 0.00 0.00 0.00 89 1023.8
20260509180356 57 266 7.0 12.2 0.00 0.00 0.00 89 1023.8
20260509175855 57 258 7.0 10.4 0.00 0.00 0.00 90 1023.7
20260509175353 57 258 8.7 12.2 0.00 0.00 0.00 89 1023.6
20260509174852 57 258 8.7 12.2 0.00 0.00 0.00 89 1023.5
20260509174350 57 258 7.8 12.2 0.00 0.00 0.00 89 1023.5
20260509173849 57 259 7.8 11.3 0.00 0.00 0.00 89 1023.4
20260509172844 57 254 8.7 12.2 0.00 0.00 0.00 88 1023.3
20260509172342 58 253 7.8 12.2 0.00 0.00 0.00 89 1023.3
20260509171839 58 250 8.7 12.2 0.00 0.00 0.00 89 1023.3
20260509171338 58 254 8.7 12.2 0.00 0.00 0.00 89 1023.3
20260509170837 58 252 7.8 11.3 0.00 0.00 0.00 89 1023.3
20260509170335 58 253 7.8 10.4 0.00 0.00 0.00 88 1023.3
20260509165834 58 252 8.7 12.2 0.00 0.00 0.00 87 1023.4
20260509165333 58 252 7.8 12.2 0.00 0.00 0.00 87 1023.4
20260509164832 58 250 7.0 12.2 0.00 0.00 0.00 87 1023.4
20260509164331 58 247 6.1 10.4 0.00 0.00 0.00 87 1023.4
20260509163830 58 249 7.8 10.4 0.00 0.00 0.00 87 1023.4
20260509163327 59 250 7.0 9.6 0.00 0.00 0.00 86 1023.4
20260509162826 59 251 7.0 10.4 0.00 0.00 0.00 86 1023.4
20260509161318 59 307 4.3 7.0 0.00 0.00 0.00 86 1023.6
20260509160816 59 308 5.2 8.7 0.00 0.00 0.00 86 1023.6
20260509160314 59 304 5.2 8.7 0.00 0.00 0.00 86 1023.6
20260509155813 59 292 5.2 9.6 0.00 0.00 0.00 85 1023.6
20260509155312 59 302 5.2 8.7 0.00 0.00 0.00 86 1023.5
20260509154811 59 315 5.2 8.7 0.00 0.00 0.00 87 1023.5
20260509154308 59 305 3.5 7.0 0.00 0.00 0.00 88 1023.5
20260509153806 59 289 4.3 7.0 0.00 0.00 0.00 87 1023.6
20260509153305 59 267 5.2 8.7 0.00 0.00 0.00 87 1023.6
20260509152803 59 276 4.3 8.7 0.00 0.00 0.00 86 1023.6
20260509152301 60 273 4.3 7.8 0.00 0.00 0.00 87 1023.6
20260509151758 59 264 6.1 9.6 0.00 0.00 0.00 85 1023.6
20260509151257 59 257 7.0 10.4 0.00 0.00 0.00 84 1023.6
20260509150756 59 254 7.0 9.6 0.00 0.00 0.00 85 1023.5
20260509150253 59 252 6.1 8.7 0.00 0.00 0.00 84 1023.5
20260509145752 59 250 7.0 9.6 0.00 0.00 0.00 84 1023.5
20260509145251 59 251 7.0 10.4 0.00 0.00 0.00 83 1023.4
20260509144750 59 256 7.8 10.4 0.00 0.00 0.00 84 1023.4
20260509144248 59 252 7.0 10.4 0.00 0.00 0.00 84 1023.4
20260509142237 59 250 7.0 10.4 0.00 0.00 0.00 85 1023.5
20260509141230 59 253 8.7 12.2 0.00 0.00 0.00 85 1023.4
20260509140729 59 254 7.8 10.4 0.00 0.00 0.00 86 1023.5
20260509140226 59 255 8.7 10.4 0.00 0.00 0.00 88 1023.4
20260509134719 59 261 7.8 12.2 0.00 0.00 0.00 87 1023.5
20260509134217 60 258 7.8 11.3 0.00 0.00 0.00 87 1023.5
20260509133212 60 258 7.8 11.3 0.00 0.00 0.00 83 1023.5
20260509132206 60 252 7.0 10.4 0.00 0.00 0.00 81 1023.5
20260509131201 60 268 5.2 8.7 0.00 0.00 0.00 82 1023.5
20260509130659 61 258 4.3 7.0 0.00 0.00 0.00 81 1023.6
20260509125653 61 263 5.2 8.7 0.00 0.00 0.00 83 1023.5
20260509125151 62 255 5.2 7.8 0.00 0.00 0.00 80 1023.5
20260509124650 62 259 5.2 7.0 0.00 0.00 0.00 79 1023.5